Altoona, PA

5:06 AM EDT on October 16, 2019 (GMT -0400)
Altoona-Blair County

Weather History for KAOO - August, 2019

Change the Weather History Date:

Monday, August 12, 2019

  Actual Average Record
Temperature  
Mean Temperature 69 °F 70 °F  
Max Temperature 84 °F 81 °F 94 °F (2016)
Min Temperature 54 °F 59 °F 40 °F (1982)
Degree Days  
Heating Degree Days 0 1  
Month to date heating degree days 0 4  
Since 1 June heating degree days 38 72  
Since 1 July heating degree days 0 14  
Cooling Degree Days 4 5  
Month to date cooling degree days 71 71  
Year to date cooling degree days 533 398  
Since 1 June cooling degree days 464 365  
Growing Degree Days 18 (Base 50)    
Moisture  
Dew Point 58 °F    
Average Humidity 67    
Maximum Humidity 93    
Minimum Humidity 40    
Precipitation  
Precipitation 0.00 in 0.09 in 1.22 in (2010)
Month to date precipitation 1.03 1.12  
Year to date precipitation 27.93 22.04  
Sea Level Pressure  
Sea Level Pressure 29.98 in    
Wind  
Wind Speed 2 mph (SSW)    
Max Wind Speed 9 mph    
Max Gust Speed 13 mph    
Visibility 10 miles    
Events      
T = Trace of Precipitation, MM = Missing Value Source: NWS Daily Summary

Daily Weather History Graph

Daily Weather History Graph

Search for Another Location

Airport or City:

Astronomy

Aug. 12, 2019 Rise Set
Actual Time 6:21 AM EDT 8:14 PM EDT
Civil Twilight 5:51 AM EDT 8:44 PM EDT
Nautical Twilight 5:15 AM EDT 9:19 PM EDT
Astronomical Twilight 4:37 AM EDT 9:58 PM EDT
Moon 6:43 PM EDT (8/12) 3:28 AM EDT (8/12)
Length of Visible Light 14h 52m
Length of Day
13h 53m
Waxing Gibbous, 93% of the Moon is Illuminated
Aug 12
Waxing Gibbous
Aug 15
Full
Aug 23
Last Quarter
Aug 30
New
Sep 5
First Quarter

Hourly Weather History & Observations

Time (EDT) Temp. Heat Index Dew Point Humidity Pressure Visibility Wind Dir Wind Speed Gust Speed Precip Events Conditions
12:53 AM 59.0 °F - 54.0 °F 83% 30.06 in 10.0 mi Calm Calm - N/A   Clear
1:53 AM 57.0 °F - 53.1 °F 87% 30.06 in 10.0 mi Calm Calm - N/A   Clear
2:53 AM 57.9 °F - 54.0 °F 87% 30.05 in 10.0 mi Calm Calm - N/A   Clear
3:53 AM 57.0 °F - 54.0 °F 89% 30.04 in 10.0 mi Calm Calm - N/A   Clear
4:53 AM 57.0 °F - 53.1 °F 87% 30.04 in 10.0 mi Calm Calm - N/A   Clear
5:53 AM 55.0 °F - 52.0 °F 89% 30.04 in 10.0 mi Calm Calm - N/A   Clear
6:53 AM 55.0 °F - 53.1 °F 93% 30.04 in 10.0 mi Calm Calm - N/A   Clear
7:53 AM 61.0 °F - 55.9 °F 83% 30.04 in 10.0 mi Calm Calm - N/A   Clear
8:53 AM 66.0 °F - 57.9 °F 75% 30.05 in 10.0 mi Calm Calm - N/A   Clear
9:53 AM 72.0 °F - 57.0 °F 59% 30.04 in 10.0 mi Calm Calm - N/A   Clear
10:53 AM 75.9 °F - 57.9 °F 54% 30.04 in 10.0 mi Calm Calm - N/A   Clear
11:53 AM 78.1 °F - 59.0 °F 52% 30.02 in 10.0 mi SW 3.5 mph - N/A   Clear
12:53 PM 80.1 °F 80.4 °F 57.0 °F 45% 29.99 in 10.0 mi Calm Calm - N/A   Clear
1:53 PM 81.0 °F 81.6 °F 60.1 °F 49% 29.99 in 10.0 mi Calm Calm - N/A   Mostly Cloudy
2:53 PM 82.9 °F 83.2 °F 60.1 °F 46% 29.96 in 10.0 mi SSW 6.9 mph - N/A   Clear
3:53 PM 82.9 °F 82.1 °F 55.9 °F 39% 29.94 in 10.0 mi SSW 9.2 mph - N/A   Scattered Clouds
4:53 PM 82.9 °F 83.3 °F 61.0 °F 47% 29.91 in 10.0 mi South 5.8 mph - N/A   Mostly Cloudy
5:53 PM 82.0 °F 83.0 °F 62.1 °F 51% 29.91 in 10.0 mi South 4.6 mph - N/A   Scattered Clouds
6:53 PM 82.0 °F 83.1 °F 63.0 °F 52% 29.90 in 10.0 mi South 3.5 mph - N/A   Scattered Clouds
7:53 PM 78.1 °F - 63.0 °F 60% 29.90 in 10.0 mi South 3.5 mph - N/A   Scattered Clouds
8:53 PM 73.9 °F - 63.0 °F 68% 29.90 in 10.0 mi Calm Calm - N/A   Mostly Cloudy
9:53 PM 71.1 °F - 64.0 °F 78% 29.90 in 10.0 mi Calm Calm - N/A   Partly Cloudy
10:53 PM 70.0 °F - 63.0 °F 78% 29.90 in 10.0 mi Calm Calm - N/A   Overcast
11:53 PM 70.0 °F - 63.0 °F 78% 29.89 in 10.0 mi South 3.5 mph - N/A   Overcast